GW0953 Weather Reports


Display with metric or nautical units.
time (UTC)temp
F
wind
direction
speed
MPH
gust
MPH
rain 1hr
in
rain 24hr
in
rain mn
in
humidity
%
barometer
mb
20260507201114 67 265 3.0 5.0 0.00 0.00 0.00 32 1015.5
20260507200609 66 319 2.0 2.0 0.00 0.00 0.00 32 1015.6
20260507200105 68 187 3.0 3.0 0.00 0.00 0.00 31 1015.6
20260507195603 67 263 3.0 3.0 0.00 0.00 0.00 33 1015.7
20260507195100 66 347 2.0 3.0 0.00 0.00 0.00 35 1015.4
20260507194556 67 243 3.0 3.0 0.00 0.00 0.00 32 1015.6
20260507194052 67 221 1.0 2.0 0.00 0.00 0.00 32 1015.7
20260507193549 65 245 3.0 3.0 0.00 0.00 0.00 33 1015.7
20260507193046 64 10 2.0 3.0 0.00 0.00 0.00 34 1015.7
20260507192542 66 342 4.0 5.0 0.00 0.00 0.00 33 1015.8
20260507192039 65 11 2.0 2.0 0.00 0.00 0.00 35 1015.5
20260507191534 66 321 2.0 3.0 0.00 0.00 0.00 31 1015.6
20260507191032 64 261 3.0 3.0 0.00 0.00 0.00 32 1015.5
20260507190529 66 329 3.0 3.0 0.00 0.00 0.00 32 1015.6
20260507190028 64 1 1.0 1.0 0.00 0.00 0.00 35 1015.8
20260507185526 65 53 5.0 7.0 0.00 0.00 0.00 33 1015.5
20260507185022 64 16 1.0 1.0 0.00 0.00 0.00 33 1015.9
20260507184521 64 37 1.0 1.0 0.00 0.00 0.00 34 1015.9
20260507184018 65 281 9.0 9.0 0.00 0.00 0.00 31 1016.0
20260507183513 65 346 2.0 2.0 0.00 0.00 0.00 31 1016.0
20260507183011 65 296 3.0 5.0 0.00 0.00 0.00 31 1015.8
20260507182507 65 156 3.0 3.0 0.00 0.00 0.00 31 1015.7
20260507182003 65 252 3.0 3.0 0.00 0.00 0.00 32 1016.0
20260507181500 64 299 4.0 8.0 0.00 0.00 0.00 32 1015.8
20260507180956 64 2 2.0 2.0 0.00 0.00 0.00 31 1015.8
20260507180453 64 334 1.0 1.0 0.00 0.00 0.00 34 1016.0
20260507175949 66 267 2.0 3.0 0.00 0.00 0.00 29 1015.9
20260507175446 65 31 1.0 1.0 0.00 0.00 0.00 32 1016.2
20260507174944 65 355 2.0 2.0 0.00 0.00 0.00 35 1016.3
20260507174440 64 101 2.0 2.0 0.00 0.00 0.00 32 1016.2
20260507173938 64 1 0.0 1.0 0.00 0.00 0.00 31 1016.4
20260507173435 65 300 1.0 2.0 0.00 0.00 0.00 37 1016.4
20260507172932 64 131 3.0 5.0 0.00 0.00 0.00 34 1016.4
20260507172428 64 195 2.0 2.0 0.00 0.00 0.00 34 1016.5
20260507171925 62 10 2.0 2.0 0.00 0.00 0.00 35 1016.7
20260507171421 62 322 1.0 1.0 0.00 0.00 0.00 37 1016.7
20260507170918 63 11 3.0 3.0 0.00 0.00 0.00 34 1016.6
20260507170415 63 255 2.0 3.0 0.00 0.00 0.00 33 1017.0
20260507165911 62 335 3.0 5.0 0.00 0.00 0.00 34 1017.1
20260507165407 62 52 3.0 3.0 0.00 0.00 0.00 34 1017.2
20260507164903 62 238 2.0 3.0 0.00 0.00 0.00 35 1017.3
20260507164400 62 278 3.0 5.0 0.00 0.00 0.00 34 1017.4
20260507163857 64 234 2.0 3.0 0.00 0.00 0.00 33 1017.2
20260507163354 62 8 1.0 1.0 0.00 0.00 0.00 32 1017.4
20260507162851 62 338 2.0 2.0 0.00 0.00 0.00 34 1017.5
20260507162346 63 333 0.0 1.0 0.00 0.00 0.00 34 1017.6
20260507161844 61 85 3.0 5.0 0.00 0.00 0.00 36 1017.7
20260507161340 63 323 1.0 2.0 0.00 0.00 0.00 35 1017.6
20260507160837 62 122 4.0 5.0 0.00 0.00 0.00 36 1017.7
20260507160332 61 331 2.0 2.0 0.00 0.00 0.00 36 1017.5
20260507155829 62 249 7.0 8.0 0.00 0.00 0.00 35 1017.7
20260507155325 61 138 2.0 2.0 0.00 0.00 0.00 37 1017.8
20260507154822 61 129 3.0 3.0 0.00 0.00 0.00 37 1017.9
20260507154319 59 308 2.0 3.0 0.00 0.00 0.00 38 1017.9
20260507153816 59 236 1.0 2.0 0.00 0.00 0.00 38 1018.0
20260507153312 60 222 2.0 2.0 0.00 0.00 0.00 38 1018.2
20260507152809 60 7 2.0 2.0 0.00 0.00 0.00 38 1018.2
20260507152306 60 15 0.0 1.0 0.00 0.00 0.00 42 1018.3
20260507151801 60 302 1.0 2.0 0.00 0.00 0.00 36 1018.2
20260507151257 59 354 0.0 1.0 0.00 0.00 0.00 38 1018.2
20260507150754 60 307 5.0 7.0 0.00 0.00 0.00 37 1018.4
20260507150251 60 351 1.0 2.0 0.00 0.00 0.00 39 1018.4
20260507145747 60 139 4.0 6.0 0.00 0.00 0.00 40 1018.4
20260507145244 59 357 1.0 2.0 0.00 0.00 0.00 43 1018.5
20260507144741 60 34 1.0 2.0 0.00 0.00 0.00 43 1018.7
20260507144239 60 326 1.0 1.0 0.00 0.00 0.00 38 1018.8
20260507143735 59 55 3.0 5.0 0.00 0.00 0.00 40 1018.8
20260507143232 59 134 3.0 3.0 0.00 0.00 0.00 37 1019.1
20260507142728 60 296 2.0 2.0 0.00 0.00 0.00 37 1018.9
20260507142225 60 341 1.0 1.0 0.00 0.00 0.00 40 1019.1
20260507141721 59 332 0.0 1.0 0.00 0.00 0.00 40 1019.4
20260507141219 59 357 2.0 2.0 0.00 0.00 0.00 40 1019.1
20260507140714 58 132 3.0 3.0 0.00 0.00 0.00 41 1019.4
20260507140212 57 303 2.0 2.0 0.00 0.00 0.00 42 1019.8
20260507135709 57 231 2.0 2.0 0.00 0.00 0.00 44 1019.8
20260507135206 57 316 2.0 2.0 0.00 0.00 0.00 46 1019.6
20260507134702 58 26 0.0 1.0 0.00 0.00 0.00 49 1020.0
20260507134159 57 9 0.0 0.0 0.00 0.00 0.00 48 1019.7
20260507133654 57 358 1.0 1.0 0.00 0.00 0.00 50 1019.8
20260507133152 56 204 1.0 1.0 0.00 0.00 0.00 52 1020.0
20260507132649 56 350 1.0 1.0 0.00 0.00 0.00 54 1019.9
20260507132145 54 56 2.0 2.0 0.00 0.00 0.00 52 1020.0
20260507131643 55 119 2.0 2.0 0.00 0.00 0.00 51 1020.2
20260507131140 57 27 1.0 2.0 0.00 0.00 0.00 48 1020.1
20260507130636 55 319 1.0 1.0 0.00 0.00 0.00 53 1020.2
20260507130134 54 14 0.0 1.0 0.00 0.00 0.00 52 1020.1
20260507125633 54 194 2.0 2.0 0.00 0.00 0.00 55 1020.2
20260507125130 55 107 3.0 3.0 0.00 0.00 0.00 51 1020.3
20260507124626 53 5 0.0 0.0 0.00 0.00 0.00 54 1020.4
20260507124124 52 6 0.0 0.0 0.00 0.00 0.00 59 1020.3
20260507123622 52 8 0.0 1.0 0.00 0.00 0.00 60 1020.1
20260507123119 51 3 0.0 0.0 0.00 0.00 0.00 64 1020.2
20260507122614 51 7 0.0 0.0 0.00 0.00 0.00 66 1020.2
20260507122110 51 355 0.0 0.0 0.00 0.00 0.00 67 1020.2
20260507121606 51 346 0.0 0.0 0.00 0.00 0.00 68 1020.2
20260507121102 50 338 0.0 0.0 0.00 0.00 0.00 71 1020.1
20260507120558 50 300 1.0 1.0 0.00 0.00 0.00 70 1020.1
20260507120055 50 340 0.0 0.0 0.00 0.00 0.00 69 1020.1
20260507115551 50 336 0.0 0.0 0.00 0.00 0.00 72 1020.1
20260507115048 49 350 0.0 0.0 0.00 0.00 0.00 76 1019.9
20260507114543 49 334 0.0 0.0 0.00 0.00 0.00 76 1020.2
20260507114041 49 329 0.0 0.0 0.00 0.00 0.00 78 1020.2
20260507113538 49 334 0.0 0.0 0.00 0.00 0.00 78 1020.1
20260507113035 48 342 0.0 0.0 0.00 0.00 0.00 75 1020.1
20260507112533 48 336 0.0 1.0 0.00 0.00 0.00 82 1020.3
20260507112029 48 341 0.0 0.0 0.00 0.00 0.00 83 1019.8
20260507111527 48 336 0.0 0.0 0.00 0.00 0.00 79 1019.8
20260507111023 48 334 0.0 0.0 0.00 0.00 0.00 81 1019.8
20260507110519 47 339 0.0 0.0 0.00 0.00 0.00 79 1019.8
20260507110016 47 343 0.0 0.0 0.00 0.00 0.00 81 1019.7
20260507105513 47 327 0.0 0.0 0.00 0.00 0.00 81 1019.6
20260507105009 47 337 0.0 0.0 0.00 0.00 0.00 82 1019.6
20260507104507 47 331 0.0 0.0 0.00 0.00 0.00 80 1019.6
20260507104003 47 337 0.0 0.0 0.00 0.00 0.00 82 1019.5
20260507103500 47 324 1.0 1.0 0.00 0.00 0.00 82 1019.4
20260507102955 47 331 0.0 0.0 0.00 0.00 0.00 80 1019.1
20260507102452 47 333 0.0 0.0 0.00 0.00 0.00 81 1019.5
20260507101948 47 350 0.0 0.0 0.00 0.00 0.00 79 1019.1
20260507101443 47 350 0.0 0.0 0.00 0.00 0.00 80 1019.1
20260507100940 47 326 0.0 0.0 0.00 0.00 0.00 79 1019.0
20260507100438 47 348 0.0 0.0 0.00 0.00 0.00 78 1019.0
20260507095936 48 354 0.0 0.0 0.00 0.00 0.00 77 1019.1
20260507095433 48 316 1.0 2.0 0.00 0.00 0.00 75 1019.4
20260507094930 47 333 0.0 0.0 0.00 0.00 0.00 74 1019.4
20260507094426 47 333 0.0 0.0 0.00 0.00 0.00 76 1019.4
20260507093923 47 332 1.0 1.0 0.00 0.00 0.00 76 1019.2
20260507093421 48 338 0.0 0.0 0.00 0.00 0.00 79 1019.4
20260507092920 48 340 0.0 1.0 0.00 0.00 0.00 77 1019.0
20260507092415 48 334 1.0 1.0 0.00 0.00 0.00 75 1018.8
20260507091912 49 336 0.0 0.0 0.00 0.00 0.00 76 1019.0
20260507091408 50 333 1.0 1.0 0.00 0.00 0.00 71 1019.0
20260507090904 50 341 1.0 1.0 0.00 0.00 0.00 60 1019.0
20260507090401 50 53 1.0 2.0 0.00 0.00 0.00 62 1019.0
20260507085858 49 356 0.0 1.0 0.00 0.00 0.00 65 1019.1
20260507085354 50 21 1.0 1.0 0.00 0.00 0.00 67 1019.0
20260507084852 50 31 1.0 1.0 0.00 0.00 0.00 66 1018.8
20260507084348 50 357 0.0 0.0 0.00 0.00 0.00 66 1019.0
20260507083845 50 7 1.0 1.0 0.00 0.00 0.00 65 1019.0
20260507083342 50 2 1.0 1.0 0.00 0.00 0.00 66 1018.9
20260507082838 50 355 0.0 0.0 0.00 0.00 0.00 67 1019.1
20260507082333 49 346 0.0 0.0 0.00 0.00 0.00 74 1018.6
20260507081831 50 345 0.0 0.0 0.00 0.00 0.00 77 1018.9
20260507081327 50 345 0.0 0.0 0.00 0.00 0.00 74 1018.7
20260507080824 50 344 0.0 0.0 0.00 0.00 0.00 71 1018.7
20260507080320 50 346 0.0 1.0 0.00 0.00 0.00 70 1018.9
20260507075815 50 347 0.0 0.0 0.00 0.00 0.00 74 1018.7
20260507075312 50 345 0.0 0.0 0.00 0.00 0.00 70 1018.7
20260507074809 50 342 0.0 0.0 0.00 0.00 0.00 69 1018.7
20260507074306 51 344 0.0 0.0 0.00 0.00 0.00 68 1018.5
20260507073803 50 351 0.0 0.0 0.00 0.00 0.00 71 1018.9
20260507073300 51 345 0.0 0.0 0.00 0.00 0.00 72 1018.8
20260507072757 51 353 0.0 0.0 0.00 0.00 0.00 70 1018.7
20260507072255 51 348 0.0 0.0 0.00 0.00 0.00 74 1018.6
20260507071752 51 348 0.0 0.0 0.00 0.00 0.00 77 1018.6
20260507071248 51 349 0.0 0.0 0.00 0.00 0.00 74 1018.6
20260507070745 51 332 0.0 1.0 0.00 0.00 0.00 77 1018.7
20260507070242 51 353 1.0 1.0 0.00 0.00 0.00 82 1018.6
20260507065738 51 343 1.0 1.0 0.00 0.00 0.00 76 1018.8
20260507065235 51 346 0.0 0.0 0.00 0.00 0.00 74 1018.7
20260507064733 51 353 0.0 0.0 0.00 0.00 0.00 74 1018.6
20260507064232 51 353 0.0 0.0 0.00 0.00 0.00 75 1018.6
20260507063728 51 2 0.0 1.0 0.00 0.00 0.00 76 1018.6
20260507063225 51 13 1.0 1.0 0.00 0.00 0.00 75 1018.9
20260507062722 52 350 0.0 0.0 0.00 0.00 0.00 79 1018.8
20260507062220 52 8 1.0 1.0 0.00 0.00 0.00 77 1018.4
20260507061717 52 27 1.0 1.0 0.00 0.00 0.00 78 1018.6
20260507061215 52 74 2.0 2.0 0.00 0.00 0.00 79 1018.9
20260507060713 52 56 0.0 0.0 0.00 0.00 0.00 81 1018.9
20260507060209 52 20 1.0 1.0 0.00 0.00 0.00 82 1019.0
20260507055705 52 283 1.0 1.0 0.00 0.00 0.00 83 1018.9
20260507055201 52 74 2.0 2.0 0.00 0.00 0.00 83 1018.8
20260507054657 52 24 1.0 2.0 0.00 0.00 0.00 83 1018.9
20260507054154 52 344 0.0 0.0 0.00 0.00 0.00 84 1019.0
20260507053652 52 359 0.0 0.0 0.00 0.00 0.00 84 1018.9
20260507053150 52 349 0.0 1.0 0.00 0.00 0.00 83 1018.9
20260507052648 52 358 0.0 1.0 0.00 0.00 0.00 81 1019.1
20260507052144 52 351 0.0 1.0 0.00 0.00 0.00 82 1019.1
20260507051642 52 355 1.0 1.0 0.00 0.00 0.00 82 1018.9
20260507051138 52 338 0.0 0.0 0.00 0.00 0.00 84 1018.9
20260507050635 51 342 0.0 0.0 0.00 0.00 0.00 88 1019.1
20260507050132 52 334 0.0 1.0 0.00 0.00 0.00 88 1019.1
20260507045629 52 345 0.0 0.0 0.00 0.00 0.00 88 1018.7
20260507045126 52 337 0.0 0.0 0.00 0.00 0.00 86 1018.9
20260507044622 52 345 0.0 0.0 0.00 0.00 0.00 84 1019.1
20260507044120 52 340 0.0 0.0 0.00 0.00 0.00 85 1019.0
20260507043615 51 348 0.0 0.0 0.00 0.00 0.00 84 1019.0
20260507043107 52 332 1.0 1.0 0.00 0.00 0.00 90 1019.0
20260507042602 52 331 0.0 0.0 0.00 0.00 0.00 89 1018.8
20260507042058 51 351 0.0 0.0 0.00 0.00 0.00 92 1018.7
20260507041555 51 346 0.0 0.0 0.00 0.00 0.00 92 1018.9
20260507041052 51 347 0.0 0.0 0.00 0.00 0.00 91 1019.1
20260507040549 51 334 0.0 0.0 0.00 0.00 0.00 91 1018.8
20260507040045 52 341 0.0 0.0 0.00 0.00 0.00 90 1019.0
20260507035541 52 327 0.0 0.0 0.00 0.21 0.21 90 1018.8
20260507035038 52 340 0.0 0.0 0.00 0.21 0.21 89 1018.9
20260507034534 52 343 0.0 0.0 0.00 0.21 0.21 87 1019.0
20260507034032 52 136 2.0 2.0 0.00 0.21 0.21 88 1019.0
20260507033530 52 340 0.0 0.0 0.00 0.21 0.21 87 1019.1
20260507033027 52 342 0.0 0.0 0.00 0.21 0.21 85 1019.2
20260507032524 53 341 0.0 0.0 0.00 0.21 0.21 86 1019.0
20260507032020 53 5 0.0 1.0 0.00 0.21 0.21 82 1018.9
20260507031516 53 60 3.0 3.0 0.00 0.21 0.21 82 1018.9
20260507031014 53 1 1.0 2.0 0.00 0.21 0.21 83 1019.2
20260507030511 53 342 0.0 0.0 0.00 0.21 0.21 82 1018.9
20260507030009 53 358 0.0 1.0 0.00 0.21 0.21 81 1018.8
20260507025505 53 307 1.0 1.0 0.00 0.21 0.21 82 1018.6
20260507025003 53 349 0.0 1.0 0.00 0.21 0.21 83 1018.8
20260507024500 53 64 2.0 2.0 0.00 0.21 0.21 81 1019.4
20260507023956 53 351 0.0 0.0 0.00 0.21 0.21 83 1019.1
20260507023453 53 279 2.0 2.0 0.00 0.21 0.21 82 1019.1
20260507022950 53 339 0.0 1.0 0.00 0.21 0.21 84 1019.1
20260507022447 53 341 0.0 0.0 0.00 0.21 0.21 82 1018.8
20260507021942 53 349 0.0 0.0 0.00 0.21 0.21 82 1018.8
20260507021438 53 337 1.0 1.0 0.00 0.21 0.21 83 1018.9
20260507020936 53 338 0.0 0.0 0.00 0.21 0.21 83 1018.7
20260507020432 53 351 0.0 0.0 0.00 0.21 0.21 82 1018.6
20260507015929 53 15 2.0 2.0 0.00 0.21 0.21 83 1018.5
20260507015428 53 27 1.0 2.0 0.00 0.21 0.21 83 1018.7
20260507014924 53 21 1.0 1.0 0.00 0.21 0.21 83 1018.8
20260507014421 53 352 0.0 0.0 0.00 0.21 0.21 84 1019.4
20260507013917 53 335 2.0 2.0 0.00 0.21 0.21 84 1019.0
20260507013414 53 323 1.0 2.0 0.00 0.21 0.21 85 1018.5
20260507012912 53 17 1.0 1.0 0.00 0.21 0.21 86 1018.2
20260507012408 53 45 2.0 2.0 0.00 0.21 0.21 87 1018.4
20260507011905 53 52 3.0 3.0 0.00 0.21 0.21 87 1018.3
20260507011402 53 23 2.0 2.0 0.00 0.21 0.21 86 1018.4
20260507010901 54 348 1.0 1.0 0.00 0.21 0.21 88 1018.4
20260507010357 54 88 1.0 2.0 0.00 0.21 0.21 87 1018.6
20260507005855 55 341 1.0 1.0 0.00 0.21 0.21 87 1018.4
20260507005351 55 28 1.0 1.0 0.00 0.21 0.21 86 1018.3
20260507004848 55 16 1.0 1.0 0.00 0.21 0.21 88 1018.6
20260507004344 55 347 0.0 0.0 0.00 0.21 0.21 87 1018.2
20260507003842 55 356 0.0 0.0 0.00 0.21 0.21 88 1018.2
20260507003332 55 321 0.0 0.0 0.00 0.21 0.21 87 1017.9
20260507002827 55 343 0.0 0.0 0.00 0.21 0.21 87 1018.0
20260507002323 55 354 1.0 1.0 0.00 0.21 0.21 87 1018.4
20260507001821 55 310 2.0 2.0 0.00 0.21 0.21 86 1018.8
20260507001318 55 281 0.0 1.0 0.00 0.21 0.21 86 1018.5
20260507000814 55 356 0.0 1.0 0.00 0.21 0.21 86 1018.3
20260507000310 55 315 1.0 1.0 0.00 0.21 0.21 85 1018.3
20260506235806 55 332 0.0 1.0 0.00 0.21 0.21 85 1018.2
20260506235302 55 336 1.0 1.0 0.00 0.21 0.21 85 1018.2
20260506234753 55 282 2.0 2.0 0.00 0.21 0.21 85 1018.2
20260506234251 55 294 2.0 2.0 0.00 0.21 0.21 86 1018.1
20260506233749 55 341 0.0 0.0 0.00 0.21 0.21 86 1017.9
20260506233245 56 45 3.0 3.0 0.00 0.21 0.21 85 1017.8
20260506232742 56 325 0.0 0.0 0.00 0.21 0.21 84 1017.9
20260506232236 56 314 1.0 1.0 0.00 0.21 0.21 83 1018.1
20260506231734 56 332 0.0 1.0 0.00 0.21 0.21 83 1018.0
20260506231232 56 359 1.0 1.0 0.00 0.21 0.21 83 1017.6
20260506230729 57 324 2.0 2.0 0.00 0.21 0.21 82 1017.4
20260506230225 57 13 1.0 1.0 0.00 0.21 0.21 82 1017.5
20260506225722 57 330 2.0 2.0 0.00 0.21 0.21 83 1017.1
20260506225219 57 326 0.0 1.0 0.00 0.21 0.21 82 1017.3
20260506224715 57 343 0.0 0.0 0.00 0.21 0.21 81 1017.2
20260506224212 57 319 1.0 1.0 0.00 0.21 0.21 81 1017.3
20260506223709 58 358 0.0 0.0 0.00 0.21 0.21 81 1017.2
20260506223204 58 347 0.0 0.0 0.00 0.21 0.21 81 1017.1
20260506222702 58 355 1.0 2.0 0.00 0.21 0.21 80 1017.3
20260506222157 58 329 0.0 1.0 0.00 0.21 0.21 80 1017.0
20260506221655 58 341 0.0 1.0 0.00 0.21 0.21 81 1017.1
20260506221153 58 290 2.0 2.0 0.00 0.21 0.21 80 1017.4
20260506220650 58 249 3.0 3.0 0.00 0.21 0.21 80 1017.1
20260506220145 59 348 0.0 1.0 0.00 0.21 0.21 80 1017.1
20260506215642 59 287 2.0 2.0 0.00 0.21 0.21 80 1017.0
20260506215137 59 334 1.0 1.0 0.00 0.21 0.21 79 1017.0
20260506214634 59 301 0.0 1.0 0.00 0.21 0.21 80 1016.9
20260506214132 59 313 3.0 3.0 0.00 0.21 0.21 79 1016.8
20260506213630 59 4 0.0 1.0 0.00 0.21 0.21 79 1016.7
20260506213127 59 315 4.0 5.0 0.00 0.21 0.21 80 1016.5
20260506212624 59 301 2.0 2.0 0.00 0.21 0.21 80 1016.5
20260506212119 59 294 6.0 7.0 0.00 0.21 0.21 79 1016.0
20260506211614 60 29 1.0 1.0 0.00 0.21 0.21 81 1016.0
20260506211112 60 339 2.0 2.0 0.00 0.21 0.21 81 1016.0
20260506210609 60 9 1.0 2.0 0.00 0.21 0.21 80 1016.0
20260506210105 60 338 0.0 0.0 0.00 0.21 0.21 81 1016.2
20260506205602 60 334 2.0 2.0 0.00 0.21 0.21 80 1016.0
20260506205057 60 34 1.0 1.0 0.00 0.21 0.21 80 1015.8
20260506204555 61 341 1.0 1.0 0.00 0.21 0.21 82 1015.9
20260506204052 61 357 1.0 2.0 0.00 0.21 0.21 83 1015.7
20260506203550 61 6 1.0 2.0 0.00 0.21 0.21 82 1015.8
20260506203046 61 71 2.0 2.0 0.00 0.21 0.21 83 1015.5
20260506202544 61 330 1.0 1.0 0.00 0.21 0.21 85 1015.4
20260506202040 61 314 2.0 2.0 0.00 0.21 0.21 85 1015.5
20260506201538 61 13 1.0 2.0 0.00 0.21 0.21 86 1015.4